Location: B?ezina
(49.8085°N, 13.6013°E)
Time: 00:56:06
(UTC+00:00)

Cosmos 1814 Rocket - Pass Details

Date: 19 May 2025
Orbit: 740 x 783 km, 74.1° (Epoch: 15 June)

Event Time Altitude Azimuth Distance (km) Brightness Sun altitude
Rises 19:45:20 0° 202° (SSW) 3,169 7.0 -7.8°
Reaches altitude 10° 19:47:40 10° 203° (SSW) 2,253 6.2 -8.1°
Maximum altitude 19:52:46 88° 291° (WNW) 757 4.0 -8.6°
Drops below altitude 10° 19:57:59 10° 23° (NNE) 2,291 6.8 -9.2°
Sets 20:00:22 0° 24° (NNE) 3,227 7.6 -9.5°
